Notices

What's New in latest Release from April 7th, 2021:

- Updated Glossary, including Speed of Maximum Gust, and Total Hourly Precipitation

- Updated national and regional climate services offices contacts and prices information

- Addition of station inventory lists for 1981-2010, 1971-2000, and 1961-1990 Normals.

If you haven't already, please take our survey and provide feedback about our website: https://eccc.sondage-survey.ca/f/LanguageSelection.aspx?s=442ca660-fcf1-47c0-95a9-59707d6fd709

Hourly Data Report for January 17, 2004

TORONTO CITY
ONTARIO

43°40'00.000" N
79°24'00.000" W
112.50 m
6158355
71508
XTO

Download Data

Hourly Data (January 2004)
Hourly Data Report for January 17, 2004
TIME
LST
Temp Definition
°C
Dew Point Definition
°C
Rel Hum Definition
%
Precip. Amount Definition
mm

Wind Dir Definition
10's deg

Wind Spd Definition
km/h
Visibility Definition
km
Stn Press Definition
kPa
Hmdx Definition


Wind Chill Definition


Weather Definition


00:00 -11.6 -14.7 78   LegendMM LegendMM LegendMM 101.13     LegendNANA
01:00 -12.0 -15.1 78   LegendMM LegendMM LegendMM 101.08     LegendNANA
02:00 -12.2 -15.3 78   LegendMM LegendMM LegendMM 101.07     LegendNANA
03:00 -12.3 -15.9 74   LegendMM LegendMM LegendMM 101.08     LegendNANA
04:00 -13.0 -16.0 78   LegendMM LegendMM LegendMM 101.05     LegendNANA
05:00 -13.2 -15.9 80   LegendMM LegendMM LegendMM 100.96     LegendNANA
06:00 -13.3 -16.1 79   LegendMM LegendMM LegendMM 100.93     LegendNANA
07:00 -13.6 -16.5 79   LegendMM LegendMM LegendMM 100.95     LegendNANA
08:00 -13.6 -17.1 75   LegendMM LegendMM LegendMM 100.89     LegendNANA
09:00 -12.5 -15.9 76   LegendMM LegendMM LegendMM 100.87     LegendNANA
10:00 -10.6 -14.2 75   LegendMM LegendMM LegendMM 100.80     LegendNANA
11:00 -9.4 -13.3 73   LegendMM LegendMM LegendMM 100.80     LegendNANA
12:00 -8.6 -12.0 76   LegendMM LegendMM LegendMM 100.64     LegendNANA
13:00 -8.0 -11.3 77   LegendMM LegendMM LegendMM 100.46     LegendNANA
14:00 -7.4 -10.8 77   LegendMM LegendMM LegendMM 100.33     LegendNANA
15:00 -7.2 -9.1 86   LegendMM LegendMM LegendMM 100.22     LegendNANA
16:00 -6.2 -8.0 87   LegendMM LegendMM LegendMM 100.07     LegendNANA
17:00 -5.7 -7.2 89   LegendMM LegendMM LegendMM 99.93     LegendNANA
18:00 -4.8 -6.3 89   LegendMM LegendMM LegendMM 99.76     LegendNANA
19:00 -4.6 -6.1 89   LegendMM LegendMM LegendMM 99.64     LegendNANA
20:00 -4.3 -5.8 89   LegendMM LegendMM LegendMM 99.47     LegendNANA
21:00 -4.1 -5.7 89   LegendMM LegendMM LegendMM 99.36     LegendNANA
22:00 -3.8 -5.5 88   LegendMM LegendMM LegendMM 99.19     LegendNANA
23:00 -3.5 -4.9 90   LegendMM LegendMM LegendMM 99.03     LegendNANA

Notes on Data Quality.

Legend

  • E = Estimated
  • M = Missing
  • NA = Not Available*
  • [empty] = Indicates an unobserved value
Date modified: